Simultaneous Nadir Overpasses (SNOs) Predictions

Prediction of SNOs between LANDSAT-8 and METOP-B Satellite Orbit:

Table of predicted SNOs for the next 14.0 days since TLE Epoch: 2/24/2017
Index Date (LANDSAT-8) Time (LANDSAT-8) Lat,Lon (LANDSAT-8) SZA (LANDSAT-8 ) Date (METOP-B) Time (METOP-B) Lat,Lon (METOP-B) SZA (METOP-B ) Distance(km) Time Diff (sec)
1 02/26/2017 15:39:35 -81.07, 163.90 88.85 02/26/2017 15:38:38 -81.07, 163.79 88.88 1.97 57
2 02/26/2017 16:29:00 81.10, -28.00 91.21 02/26/2017 16:29:17 81.10, -28.12 91.20 2.06 17
3 03/01/2017 11:13:47 -81.10,-129.29 89.85 03/01/2017 11:12:58 -81.09,-129.22 89.86 1.13 49
4 03/01/2017 12:03:13 81.10, 38.42 90.16 03/01/2017 12:03:38 81.11, 38.48 90.18 1.18 25
5 03/04/2017 06:48:01 -81.09, -62.88 90.91 03/04/2017 06:47:21 -81.09, -63.00 90.94 2.16 40
6 03/04/2017 07:37:26 81.12, 105.17 89.14 03/04/2017 07:38:00 81.11, 105.05 89.14 2.08 34
7 03/07/2017 02:22:15 -81.09, 3.48 91.99 03/07/2017 02:21:43 -81.09, 3.58 91.99 1.85 32
8 03/07/2017 03:11:40 81.12, 171.50 88.05 03/07/2017 03:12:22 81.12, 171.61 88.08 1.97 42
9 03/09/2017 21:56:27 -81.11, 70.16 93.04 03/09/2017 21:56:04 -81.10, 70.15 93.05 0.63 23




NCC Satellite Simultaneous Nadir Overpasses (SNOs) Prediction Service
